When you browse on this site, cookies collect data to enhance your experience and personalize the content and advertising you see.
Visit our Privacy Policy to learn more. By continuing to use the site, you agree to this use of cookies and data.
  • In Hungary
  • List of Countries
  • For 7 days
  • Water Temperature
  • Satellite Maps
  • Weather Map
  • News
  • Weather Widgets
  • user-avatar
    Login

    Hourly Weather Zabolotyntsi

    Today, 21 November, Wednesday

    Time Temperature Precipitation Wind Pressure Humidity
    00:00 -5°C° 0 mm 4 mps 747 mmHg 88%
    01:00 -5°C° 0 mm 4 mps 747 mmHg 89%
    02:00 -5°C° 0 mm 4 mps 747 mmHg 90%
    03:00 -5°C° 0 mm 4 mps 747 mmHg 89%
    04:00 -5°C° 0 mm 4 mps 747 mmHg 88%
    05:00 -5°C° 0 mm 4 mps 747 mmHg 87%
    06:00 -4°C° 0 mm 4 mps 747 mmHg 86%
    07:00 -4°C° 0 mm 4 mps 747 mmHg 85%
    08:00 -4°C° 0 mm 4 mps 747 mmHg 84%
    09:00 -4°C° 0 mm 4 mps 747 mmHg 81%
    10:00 -4°C° 0 mm 4 mps 748 mmHg 78%
    11:00 -3°C° 0 mm 4 mps 748 mmHg 75%
    12:00 -3°C° 0 mm 4 mps 748 mmHg 72%
    13:00 -2°C° 0 mm 4 mps 748 mmHg 69%
    14:00 -2°C° 0 mm 4 mps 747 mmHg 67%
    15:00 -2°C° 0 mm 4 mps 748 mmHg 71%
    16:00 -2°C° 0 mm 3 mps 748 mmHg 76%
    17:00 -4°C° 0 mm 3 mps 748 mmHg 80%
    18:00 -4°C° 0 mm 3 mps 748 mmHg 82%
    19:00 -5°C° 0 mm 3 mps 748 mmHg 83%
    20:00 -5°C° 0 mm 3 mps 748 mmHg 85%
    21:00 -5°C° 0 mm 3 mps 748 mmHg 85%
    22:00 -4°C° 0 mm 2 mps 748 mmHg 86%
    23:00 -4°C° 0 mm 2 mps 748 mmHg 86%

    Tomorrow, 22 November, Thursday

    Time Temperature Precipitation Wind Pressure Humidity
    00:00 -4°C° 0 mm 2 mps 748 mmHg 87%
    01:00 -4°C° 0 mm 2 mps 749 mmHg 87%
    02:00 -5°C° 0 mm 2 mps 749 mmHg 87%
    03:00 -5°C° 0 mm 2 mps 749 mmHg 87%
    04:00 -5°C° 0 mm 2 mps 749 mmHg 88%
    05:00 -5°C° 0 mm 2 mps 749 mmHg 88%
    06:00 -5°C° 0 mm 2 mps 749 mmHg 88%
    07:00 -3°C° 0 mm 1 mps 749 mmHg 89%
    08:00 -3°C° 0 mm 1 mps 749 mmHg 89%
    09:00 -2°C° 0 mm 1 mps 749 mmHg 82%
    10:00 -1°C° 0 mm 1 mps 749 mmHg 75%
    11:00 -2°C° 0 mm 2 mps 749 mmHg 68%
    12:00 -1°C° 0 mm 2 mps 749 mmHg 65%
    13:00 +1°C° 0 mm 1 mps 749 mmHg 62%
    14:00 +2°C° 0 mm 1 mps 749 mmHg 59%
    15:00 +1°C° 0 mm 1 mps 749 mmHg 64%
    16:00 0°C° 0 mm 1 mps 749 mmHg 70%
    17:00 -1°C° 0 mm 1 mps 749 mmHg 75%
    18:00 -1°C° 0 mm 1 mps 749 mmHg 76%
    19:00 -2°C° 0 mm 1 mps 749 mmHg 77%
    20:00 -2°C° 0 mm 1 mps 749 mmHg 78%
    21:00 -2°C° 0 mm 1 mps 749 mmHg 79%
    22:00 -2°C° 0 mm 1 mps 749 mmHg 79%
    23:00 -2°C° 0 mm 1 mps 749 mmHg 79%

    Day after tomorrow, 23 November, Friday

    Time Temperature Precipitation Wind Pressure Humidity
    00:00 -2°C° 0 mm 1 mps 749 mmHg 80%
    01:00 -2°C° 0 mm 1 mps 750 mmHg 80%
    02:00 -2°C° 0 mm 1 mps 750 mmHg 80%
    03:00 -3°C° 0 mm 1 mps 750 mmHg 81%
    04:00 -3°C° 0 mm 1 mps 750 mmHg 81%
    05:00 -3°C° 0 mm 1 mps 750 mmHg 82%
    06:00 -3°C° 0 mm 1 mps 750 mmHg 82%
    07:00 -3°C° 0 mm 1 mps 750 mmHg 83%
    08:00 -4°C° 0 mm 0 mps 750 mmHg 83%
    09:00 -2°C° 0 mm 1 mps 751 mmHg 77%
    10:00 -1°C° 0 mm 1 mps 751 mmHg 70%
    11:00 0°C° 0 mm 1 mps 751 mmHg 64%
    12:00 +1°C° 0 mm 1 mps 751 mmHg 61%
    13:00 +2°C° 0 mm 1 mps 751 mmHg 58%
    14:00 +2°C° 0 mm 1 mps 751 mmHg 54%
    15:00 +1°C° 0 mm 1 mps 751 mmHg 59%
    16:00 0°C° 0 mm 1 mps 750 mmHg 64%
    17:00 -3°C° 0 mm 2 mps 750 mmHg 68%
    18:00 -3°C° 0 mm 2 mps 750 mmHg 69%
    19:00 -3°C° 0 mm 2 mps 750 mmHg 70%
    20:00 -3°C° 0 mm 2 mps 750 mmHg 70%
    21:00 -3°C° 0 mm 2 mps 750 mmHg 71%
    22:00 -4°C° 0 mm 3 mps 749 mmHg 71%
    23:00 -4°C° 0 mm 3 mps 749 mmHg 71%

    24 November, Saturday

    Time Temperature Precipitation Wind Pressure Humidity
    00:00 -4°C° 0 mm 3 mps 749 mmHg 71%
    01:00 -4°C° 0 mm 3 mps 748 mmHg 71%
    02:00 -4°C° 0 mm 3 mps 748 mmHg 71%
    03:00 -4°C° 0 mm 3 mps 748 mmHg 70%
    04:00 -4°C° 0 mm 3 mps 747 mmHg 70%
    05:00 -4°C° 0 mm 3 mps 747 mmHg 69%
    06:00 -4°C° 0 mm 3 mps 746 mmHg 70%
    07:00 -4°C° 0 mm 3 mps 746 mmHg 70%
    08:00 -4°C° 0 mm 3 mps 746 mmHg 70%
    09:00 -2°C° 0 mm 3 mps 745 mmHg 66%
    10:00 -1°C° 0 mm 3 mps 745 mmHg 62%
    11:00 +1°C° 0 mm 3 mps 745 mmHg 58%
    12:00 +1°C° 0 mm 3 mps 745 mmHg 58%
    13:00 +2°C° 0 mm 3 mps 744 mmHg 58%
    14:00 +3°C° 0 mm 3 mps 744 mmHg 57%
    15:00 +2°C° 0 mm 3 mps 743 mmHg 62%
    16:00 0°C° 0 mm 3 mps 743 mmHg 66%
    17:00 -1°C° 0 mm 3 mps 742 mmHg 71%
    18:00 -1°C° 0 mm 3 mps 742 mmHg 71%
    19:00 -1°C° 0 mm 3 mps 742 mmHg 71%
    20:00 -1°C° 0 mm 3 mps 741 mmHg 71%
    21:00 -1°C° 0.1 mm 3 mps 741 mmHg 73%
    22:00 0°C° 0.1 mm 3 mps 741 mmHg 74%
    23:00 0°C° 0.1 mm 3 mps 741 mmHg 75%

    25 November, Sunday

    Time Temperature Precipitation Wind Pressure Humidity
    00:00 0°C° 0.2 mm 3 mps 740 mmHg 79%
    01:00 +1°C° 0.2 mm 3 mps 740 mmHg 83%
    02:00 +1°C° 0.2 mm 3 mps 740 mmHg 87%
    03:00 +1°C° 0.1 mm 3 mps 739 mmHg 88%
    04:00 +1°C° 0.1 mm 3 mps 739 mmHg 89%
    05:00 +1°C° 0.1 mm 3 mps 739 mmHg 90%
    06:00 +1°C° 0.1 mm 3 mps 739 mmHg 91%
    07:00 +1°C° 0.1 mm 3 mps 738 mmHg 91%
    08:00 +1°C° 0.1 mm 3 mps 738 mmHg 92%
    09:00 +2°C° 0 mm 3 mps 738 mmHg 91%
    10:00 +3°C° 0 mm 4 mps 738 mmHg 90%
    11:00 +3°C° 0 mm 4 mps 738 mmHg 89%
    12:00 +4°C° 0 mm 3 mps 738 mmHg 88%
    13:00 +4°C° 0 mm 3 mps 738 mmHg 86%
    14:00 +5°C° 0 mm 3 mps 737 mmHg 85%
    15:00 +4°C° 0 mm 3 mps 737 mmHg 87%
    16:00 +4°C° 0 mm 3 mps 737 mmHg 89%
    17:00 +4°C° 0 mm 2 mps 737 mmHg 91%
    18:00 +4°C° 0 mm 2 mps 737 mmHg 92%
    19:00 +4°C° 0 mm 2 mps 737 mmHg 92%
    20:00 +3°C° 0 mm 2 mps 736 mmHg 93%
    21:00 +3°C° 0.3 mm 3 mps 736 mmHg 93%
    22:00 +3°C° 0.3 mm 3 mps 736 mmHg 93%
    23:00 +3°C° 0.3 mm 4 mps 736 mmHg 93%

    26 November, Monday

    Time Temperature Precipitation Wind Pressure Humidity
    00:00 +3°C° 0.1 mm 4 mps 736 mmHg 93%
    01:00 +3°C° 0.1 mm 4 mps 736 mmHg 92%
    02:00 +3°C° 0.1 mm 4 mps 735 mmHg 91%
    03:00 +2°C° 0 mm 5 mps 735 mmHg 90%
    04:00 +1°C° 0 mm 5 mps 735 mmHg 88%
    05:00 +1°C° 0 mm 5 mps 735 mmHg 86%
    06:00 +1°C° 0 mm 5 mps 735 mmHg 86%
    07:00 0°C° 0 mm 5 mps 735 mmHg 87%
    08:00 0°C° 0 mm 5 mps 735 mmHg 87%
    09:00 0°C° 0 mm 5 mps 736 mmHg 85%
    10:00 0°C° 0 mm 5 mps 736 mmHg 82%
    11:00 0°C° 0 mm 5 mps 737 mmHg 80%
    12:00 0°C° 0 mm 4 mps 737 mmHg 79%
    13:00 0°C° 0 mm 4 mps 737 mmHg 78%
    14:00 +1°C° 0 mm 3 mps 737 mmHg 77%
    15:00 +1°C° 0 mm 3 mps 737 mmHg 78%
    16:00 0°C° 0 mm 3 mps 737 mmHg 79%
    17:00 +1°C° 0 mm 2 mps 737 mmHg 80%
    18:00 +1°C° 0 mm 2 mps 737 mmHg 82%
    19:00 -1°C° 0 mm 2 mps 737 mmHg 84%
    20:00 -1°C° 0 mm 2 mps 737 mmHg 85%
    21:00 -1°C° 0 mm 2 mps 737 mmHg 87%
    22:00 -2°C° 0 mm 2 mps 737 mmHg 88%
    23:00 -2°C° 0 mm 2 mps 737 mmHg 89%
    Show more